{"data":{"norad_id":52490,"epoch":"2026-05-25T01:41:02.769216Z","epoch_age_seconds":65827,"freshness":"FRESH","line1":"1 52490U 22049AR  26145.07017094 -.00000036  00000+0  15851-4 0  9996","line2":"2 52490  53.2161  66.2338 0001332  95.2886 264.8258 15.08835374223922","mean_motion":15.08835374,"eccentricity":0.0001332,"inclination_deg":53.2161,"raan_deg":66.2338,"arg_perigee_deg":95.2886,"mean_anomaly_deg":264.8258,"bstar":1.5851e-5,"rev_number":22392,"period_min":95.437847283663,"perigee_km":538.83606528033,"apogee_km":540.67899238281,"semimajor_km":6917.8945288316,"source":"CELESTRAK","updated_at":"2026-05-25T13:38:17.157778Z"}}